TimeMST,TemperatureF,Dew PointF,Humidity,Sea Level PressureIn,VisibilityMPH,Wind Direction,Wind SpeedMPH,Gust SpeedMPH,PrecipitationIn,Events,Conditions,WindDirDegrees,DateUTC
12:53 AM,34.0,30.0,85,30.25,10.0,South,6.9,-,N/A,,Clear,180,2013-11-10 07:53:00
1:53 AM,30.9,27.0,85,30.25,10.0,South,8.1,-,N/A,,Clear,180,2013-11-10 08:53:00
2:53 AM,28.9,27.0,92,30.26,10.0,SSW,6.9,-,N/A,,Clear,200,2013-11-10 09:53:00
3:53 AM,32.0,30.0,92,30.27,10.0,SSW,3.5,-,N/A,,Clear,200,2013-11-10 10:53:00
4:53 AM,28.0,25.0,88,30.31,10.0,South,5.8,-,N/A,,Clear,190,2013-11-10 11:53:00
5:53 AM,32.0,30.0,92,30.30,4.0,South,11.5,-,N/A,,Partly Cloudy,190,2013-11-10 12:53:00
6:02 AM,32.0,32.0,100,30.28,1.8,South,12.7,-,N/A,,Scattered Clouds,190,2013-11-10 13:02:00
6:06 AM,32.0,30.2,93,30.28,0.8,South,11.5,-,N/A,,Mist,190,2013-11-10 13:06:00
6:53 AM,33.1,33.1,100,30.31,0.2,South,9.2,-,N/A,Fog,Fog,180,2013-11-10 13:53:00
7:27 AM,35.6,35.6,100,30.29,1.0,South,6.9,-,N/A,,Overcast,180,2013-11-10 14:27:00
7:37 AM,37.4,35.6,93,30.29,3.0,South,9.2,-,N/A,,Overcast,190,2013-11-10 14:37:00
7:50 AM,37.4,37.4,100,30.30,2.0,South,9.2,-,N/A,,Overcast,180,2013-11-10 14:50:00
7:53 AM,37.9,37.0,97,30.32,0.8,South,10.4,-,N/A,,Overcast,190,2013-11-10 14:53:00
8:39 AM,41.0,39.2,93,30.30,1.8,South,12.7,-,N/A,,Overcast,180,2013-11-10 15:39:00
8:50 AM,41.0,39.2,93,30.30,3.0,South,11.5,-,N/A,,Overcast,180,2013-11-10 15:50:00
8:53 AM,41.0,39.9,96,30.32,3.0,South,12.7,-,N/A,,Overcast,190,2013-11-10 15:53:00
9:27 AM,44.6,42.8,93,30.29,10.0,South,17.3,-,N/A,,Overcast,180,2013-11-10 16:27:00
9:53 AM,46.0,43.0,89,30.30,10.0,SSW,16.1,-,N/A,,Overcast,200,2013-11-10 16:53:00
10:02 AM,46.4,42.8,87,30.28,10.0,South,17.3,-,N/A,,Overcast,190,2013-11-10 17:02:00
10:20 AM,50.0,42.8,76,30.27,10.0,South,20.7,-,N/A,,Scattered Clouds,190,2013-11-10 17:20:00
10:53 AM,51.1,42.1,71,30.26,10.0,SSW,20.7,28.8,N/A,,Scattered Clouds,200,2013-11-10 17:53:00
11:04 AM,51.8,42.8,71,30.26,10.0,South,21.9,-,N/A,,Mostly Cloudy,190,2013-11-10 18:04:00
11:43 AM,53.6,42.8,67,30.24,10.0,South,17.3,-,N/A,,Mostly Cloudy,190,2013-11-10 18:43:00
11:53 AM,54.0,42.1,64,30.22,10.0,SSW,21.9,-,N/A,,Mostly Cloudy,200,2013-11-10 18:53:00
12:03 PM,53.6,42.8,67,30.23,10.0,South,17.3,25.3,N/A,,Scattered Clouds,190,2013-11-10 19:03:00
12:53 PM,55.0,42.1,62,30.19,10.0,South,20.7,26.5,N/A,,Clear,190,2013-11-10 19:53:00
1:53 PM,57.9,39.9,51,30.17,10.0,SSW,16.1,-,N/A,,Clear,200,2013-11-10 20:53:00
2:53 PM,57.9,39.0,49,30.18,10.0,SSW,17.3,-,N/A,,Clear,200,2013-11-10 21:53:00
3:53 PM,55.9,39.0,53,30.17,10.0,SW,10.4,-,N/A,,Clear,220,2013-11-10 22:53:00
4:53 PM,46.0,36.0,68,30.21,10.0,SW,8.1,-,N/A,,Clear,220,2013-11-10 23:53:00
5:53 PM,41.0,34.0,76,30.21,10.0,SW,9.2,-,N/A,,Clear,220,2013-11-11 00:53:00
6:53 PM,39.0,33.1,79,30.22,10.0,SSW,5.8,-,N/A,,Clear,200,2013-11-11 01:53:00
7:53 PM,37.9,34.0,86,30.22,10.0,SW,9.2,-,N/A,,Clear,220,2013-11-11 02:53:00
8:53 PM,43.0,39.0,86,30.19,10.0,SW,10.4,-,N/A,,Clear,220,2013-11-11 03:53:00
9:53 PM,37.9,35.1,89,30.19,10.0,WSW,9.2,-,N/A,,Clear,250,2013-11-11 04:53:00
10:53 PM,36.0,32.0,86,30.17,10.0,West,11.5,-,N/A,,Clear,260,2013-11-11 05:53:00
11:53 PM,37.0,32.0,82,30.15,10.0,West,11.5,-,N/A,,Clear,260,2013-11-11 06:53:00